Theta_e
342 345 346 345 346 346 346 346 348 347 348 349 351 351 351 353 356 358 359 362 364 365 366 367 365 365 364 363 363 364 362 361 362 361 361 360 359 359 358 357 358 360 358 357 360 359 364 365 366 367 367 367 367 369 371 370 370 369 370 373 371 370 372
339 342 344 345 346 346 348 348 349 348 349 349 351 353 352 353 355 356 359 362 364 364 365 365 366 365 364 364 364 365 364 362 363 363 362 361 361 361 360 361 358 360 362 360 360 364 365 366 366 365 365 367 365 367 367 369 370 369 370 370 369 370 370
337 338 341 344 346 346 349 349 349 348 350 349 350 351 352 355 355 357 359 360 362 364 365 365 366 364 365 365 364 364 365 363 362 361 360 357 360 358 360 363 361 358 359 360 362 361 364 365 367 366 365 363 361 364 366 367 368 368 369 370 368 365 368
336 337 339 341 345 347 348 349 350 349 349 350 350 352 353 355 356 357 358 360 361 362 363 363 364 363 363 364 364 365 365 364 362 360 359 358 358 360 359 360 361 360 357 358 358 358 357 361 364 366 367 364 364 363 365 365 364 367 367 368 366 365 366
336 337 338 339 341 345 347 349 348 350 349 349 351 353 353 353 354 356 358 358 358 360 360 361 361 362 363 364 362 362 363 364 362 360 360 359 360 361 359 357 358 359 357 358 361 362 362 363 362 363 365 367 364 365 365 366 364 365 366 367 365 363 363
334 335 336 338 339 342 345 347 349 349 349 349 349 350 350 350 352 353 356 357 356 358 360 361 360 362 362 362 362 361 364 364 365 364 361 361 360 358 358 359 357 358 355 357 358 360 363 362 360 360 361 361 359 357 360 363 362 361 364 366 365 362 359
334 336 336 338 341 341 343 346 347 348 349 350 350 351 350 349 350 351 352 353 354 355 356 357 358 359 362 362 362 363 363 362 363 362 361 359 360 359 360 360 359 355 356 358 358 359 360 361 360 361 362 359 358 356 359 364 362 362 364 366 366 366 366
335 336 338 338 339 341 346 346 348 348 350 349 350 350 350 349 349 351 351 350 353 353 353 354 356 358 361 362 361 361 362 362 362 363 362 360 358 359 358 359 358 359 358 355 358 360 357 360 359 359 359 359 359 362 360 363 368 361 360 363 364 364 359
334 337 337 338 338 339 342 346 349 350 346 347 349 350 349 349 348 349 349 350 351 352 352 353 355 357 361 361 361 361 361 361 362 362 361 359 357 356 356 356 357 359 358 355 354 359 359 356 357 359 361 360 359 362 363 365 365 363 361 361 364 363 359
331 333 335 336 336 338 339 341 346 349 350 349 351 353 350 350 349 349 348 349 350 351 351 352 353 355 358 360 360 361 361 361 361 360 360 358 357 355 355 354 355 358 357 355 353 352 358 358 357 359 362 362 361 362 365 364 364 363 362 363 363 363 363
328 331 332 332 333 334 336 336 338 342 346 349 349 347 349 349 349 349 349 349 349 350 351 353 355 354 355 357 358 358 359 359 359 358 359 358 356 355 355 354 353 356 356 355 352 352 353 358 359 359 361 360 360 361 363 362 363 363 359 360 362 363 360
326 327 328 331 331 332 334 336 336 336 339 344 346 346 349 350 348 348 349 349 349 349 350 351 352 352 353 355 356 357 358 358 358 357 357 357 356 355 355 354 354 354 356 356 354 353 351 354 357 357 360 362 360 360 362 364 363 364 362 357 358 360 360
324 325 327 328 330 331 333 335 335 334 334 337 340 345 346 347 347 346 349 350 349 349 350 352 352 353 351 352 354 357 357 357 357 358 357 358 357 356 356 355 354 354 353 356 356 353 351 350 355 358 358 362 362 357 360 363 362 364 365 362 359 359 360
325 324 325 327 328 329 329 331 333 333 332 332 335 339 344 346 348 349 351 349 350 350 349 350 352 352 352 352 353 355 355 357 358 358 360 359 361 359 357 356 356 356 356 357 356 354 353 351 350 354 357 357 360 360 359 361 362 364 366 366 361 358 359
320 321 323 323 325 327 328 327 330 331 331 331 332 334 337 340 344 349 351 353 353 349 350 352 352 352 351 352 353 355 358 358 358 359 361 360 361 360 359 357 358 358 358 359 357 355 355 354 352 352 355 356 357 358 357 354 357 358 361 363 363 361 356
319 319 320 321 322 323 326 327 328 330 331 332 331 330 332 335 339 344 348 349 350 352 354 351 351 352 352 351 353 356 358 359 360 360 361 360 361 362 361 359 359 357 358 358 358 359 359 358 356 354 353 355 356 357 354 353 352 355 345 350 359 361 354
319 320 320 321 323 322 325 325 326 327 329 331 331 330 329 332 338 343 344 348 349 351 352 354 352 350 351 353 355 356 359 359 360 361 361 362 362 363 362 359 358 359 360 359 359 360 361 358 356 355 354 353 354 355 354 352 349 342 335 336 341 355 358
319 320 321 321 322 323 323 323 324 325 326 328 330 330 329 331 334 338 341 344 349 352 353 351 352 353 353 353 356 357 358 358 362 361 361 362 363 363 364 362 360 359 361 359 358 361 359 357 357 358 355 353 354 353 354 355 344 332 331 333 333 342 354
319 319 320 322 322 323 322 323 324 325 326 327 329 329 330 331 332 334 338 342 345 352 354 353 351 351 356 358 356 357 357 361 360 361 360 362 362 363 363 363 360 359 358 357 359 358 359 360 357 358 357 356 355 353 354 354 341 330 328 330 330 331 344
318 319 320 320 322 323 324 325 325 326 327 328 329 329 329 331 330 332 336 340 345 349 351 352 353 354 354 355 358 359 359 360 359 359 361 362 362 362 361 360 361 358 357 357 359 359 357 357 358 358 359 358 357 357 355 355 343 329 325 326 326 328 335
318 318 319 320 320 322 324 325 326 327 328 327 328 328 328 328 330 331 334 338 341 346 347 349 351 352 352 353 356 359 358 359 359 359 360 362 362 362 361 360 361 359 357 356 356 357 358 357 358 358 358 357 357 356 355 354 337 327 322 322 322 325 331
317 317 318 319 320 321 322 324 325 326 328 330 329 328 328 327 329 330 332 337 339 342 343 344 344 342 343 348 351 355 356 357 358 360 360 361 361 362 361 361 361 360 359 358 356 356 356 358 359 358 357 357 357 355 355 356 333 326 322 319 320 323 342
316 317 318 319 320 320 322 324 324 326 328 328 328 329 330 329 328 329 331 334 337 339 341 341 340 340 340 340 341 344 349 350 352 357 359 362 362 362 360 360 360 361 362 359 357 354 353 356 357 360 359 358 358 357 357 357 341 324 319 318 318 325 348
317 318 317 318 319 320 322 322 323 324 325 325 327 327 329 331 329 329 331 332 334 339 339 338 337 338 339 338 340 340 340 342 347 353 356 358 358 358 358 358 358 358 360 358 357 355 353 355 356 358 360 359 359 358 357 358 348 323 318 316 316 331 350
315 317 317 317 317 317 318 320 322 322 323 323 325 326 328 329 329 327 328 330 331 333 333 334 335 336 337 338 340 338 340 342 343 346 353 356 356 357 357 357 358 358 358 357 358 357 358 357 356 356 359 359 359 355 356 359 351 324 318 316 314 330 353
313 314 315 316 317 319 320 321 321 320 319 319 322 325 326 326 327 329 328 327 328 329 328 329 331 336 338 339 340 340 340 341 342 343 345 351 357 359 358 358 357 357 356 357 357 357 357 357 357 356 358 361 358 358 358 358 360 359 316 315 313 318 351
313 314 314 315 316 320 318 318 318 318 319 320 322 322 324 325 326 328 329 328 328 328 328 329 332 334 336 337 337 339 341 342 343 343 345 347 350 355 359 358 358 358 358 357 358 359 358 359 360 359 358 358 359 359 359 360 361 361 318 314 312 314 326
312 312 314 315 317 317 317 317 318 319 318 320 321 321 322 323 324 327 329 328 327 329 330 331 332 333 334 334 336 338 340 341 342 344 344 347 349 350 354 360 360 360 360 359 359 361 361 364 363 359 356 357 357 361 362 360 352 364 327 315 312 312 313
311 311 311 313 314 315 315 315 316 317 318 318 319 321 322 322 324 326 327 328 330 330 330 331 332 332 333 334 334 337 339 341 341 342 343 345 348 349 348 352 358 362 362 360 360 360 359 359 359 356 353 353 356 361 363 364 363 339 357 317 312 311 311
312 312 312 312 312 313 314 314 315 315 318 319 320 321 322 322 323 325 326 327 331 331 331 332 331 332 331 332 332 333 336 339 340 340 342 344 346 349 348 348 351 355 360 360 358 357 356 356 355 353 352 351 354 356 358 363 364 349 336 340 312 312 310
311 311 311 312 312 315 315 314 314 314 316 318 321 321 322 323 322 323 324 327 330 330 331 331 331 331 330 330 331 332 333 335 339 340 339 341 343 345 347 349 350 350 355 357 356 356 355 354 353 352 351 351 353 356 359 361 363 365 351 329 320 313 312
311 313 313 313 313 314 315 314 314 313 313 315 318 319 321 321 322 322 323 325 328 330 329 330 331 331 330 330 330 330 331 332 334 339 341 341 342 345 347 347 347 349 353 354 354 355 354 353 353 351 351 352 354 355 358 362 365 365 368 346 331 322 315
311 312 312 313 314 315 314 315 313 313 313 313 316 318 319 319 319 322 325 325 324 325 327 329 329 329 330 329 328 330 331 332 332 334 337 339 341 342 345 348 349 349 350 353 353 354 353 352 351 351 352 352 354 356 359 363 364 364 364 365 362 352 342
310 311 313 314 315 315 314 313 314 315 315 315 316 317 318 318 319 320 322 323 323 323 326 327 327 326 327 328 328 328 329 330 331 332 335 337 340 339 340 344 347 348 349 351 353 353 353 352 352 352 353 354 356 358 359 359 358 363 363 364 364 365 362
310 311 312 312 313 314 313 313 313 314 314 315 317 317 317 318 319 320 322 324 325 325 326 326 325 325 325 326 327 326 329 328 329 330 331 334 337 339 340 341 342 343 347 352 354 356 356 353 354 356 358 359 358 357 358 359 359 364 344 368 342 358 363
309 310 310 312 312 313 313 313 313 313 313 314 316 317 318 319 319 321 322 323 325 326 327 327 326 326 324 325 326 326 326 327 327 327 329 330 332 334 337 336 322 330 340 340 335 327 320 318 337 345 347 346 350 356 358 359 366 340 329 326 326 322 322
307 308 309 310 310 311 311 312 313 313 313 313 315 316 317 319 320 320 322 323 323 325 326 326 324 323 323 325 326 327 328 327 326 328 330 331 331 333 334 336 340 314 311 320 326 323 316 312 310 311 314 332 342 344 331 327 322 316 318 317 315 315 314
308 309 309 310 309 310 311 311 311 312 313 313 314 314 316 317 319 320 321 322 322 325 326 326 323 322 322 324 325 326 328 329 329 330 329 329 331 332 332 333 334 338 323 309 309 311 307 306 306 306 308 309 315 329 346 334 320 315 314 313 311 310 310
Wind_Speed
9 10 11 12 13 15 16 16 16 16 16 15 16 18 17 15 15 14 13 15 16 15 16 15 15 14 15 13 13 12 12 11 10 10 10 9 8 8 9 9 9 8 7 7 7 7 6 6 6 6 6 7 7 7 6 6 6 5 5 4 5 4 4
5 6 10 11 12 14 15 16 16 15 15 15 16 18 16 17 15 15 14 15 16 16 16 15 15 14 14 14 12 13 13 13 12 10 9 8 8 8 8 8 8 8 8 7 6 6 6 7 7 7 7 7 7 7 7 7 7 6 5 6 5 5 5
8 8 2 8 10 11 14 15 15 15 16 15 16 16 17 16 16 16 15 15 16 16 15 16 16 15 14 14 13 14 14 13 13 13 12 11 12 12 10 8 8 8 8 9 7 6 7 7 7 7 7 7 7 7 7 7 7 7 6 5 6 6 5
10 10 8 8 6 12 14 14 15 15 15 17 17 17 17 18 17 16 16 16 17 16 16 16 15 15 14 14 14 14 14 14 14 13 14 13 11 11 10 9 8 8 8 9 8 8 7 7 8 7 7 7 7 6 7 7 7 7 7 7 6 6 6
11 10 8 8 6 7 9 12 13 13 15 16 15 15 15 16 16 15 16 16 17 17 17 17 15 15 13 14 12 12 14 15 14 13 13 12 11 10 11 11 10 10 9 8 8 7 7 7 8 8 7 7 8 7 7 7 7 7 7 7 7 6 6
11 10 9 7 5 8 8 11 12 13 15 14 15 15 15 16 15 16 15 15 15 15 15 16 16 14 15 15 13 13 13 14 13 13 12 12 12 11 12 12 11 10 11 10 8 9 9 9 9 9 9 9 9 8 8 8 8 8 7 7 7 7 7
11 11 10 9 10 3 9 7 10 14 12 12 13 13 14 15 17 16 14 14 15 15 16 16 16 15 13 13 13 14 14 14 14 15 13 14 13 13 12 11 11 11 10 9 10 9 9 10 10 9 9 9 8 9 8 7 7 7 6 7 7 7 7
13 12 11 11 11 13 11 2 7 10 9 8 9 12 14 14 14 15 16 15 14 15 15 15 15 14 13 13 12 14 14 14 14 14 13 14 13 13 12 12 11 11 10 11 10 10 10 10 10 10 10 10 9 9 8 8 8 8 7 7 7 8 7
13 13 13 13 14 14 13 14 15 10 1 6 7 10 11 12 13 14 15 14 14 15 15 15 15 14 12 13 13 15 14 14 13 13 15 15 14 15 14 13 12 11 11 11 11 10 10 11 11 10 10 10 9 9 9 9 9 8 8 8 8 8 8
14 13 14 14 15 14 14 16 16 14 14 11 8 8 7 10 11 12 12 14 14 16 16 15 13 13 14 13 14 15 14 14 14 15 15 15 14 15 15 13 12 12 12 12 11 11 10 11 11 10 10 10 10 10 9 9 9 9 9 9 9 9 9
13 14 15 16 17 16 17 18 17 15 14 13 10 3 6 6 10 10 11 13 13 13 14 13 12 14 15 15 16 15 15 15 15 15 15 15 14 16 15 14 13 12 13 12 12 12 11 10 11 11 11 11 11 11 11 10 10 10 10 9 9 10 9
13 13 14 16 17 18 18 16 15 16 15 13 12 11 5 7 8 9 10 12 12 12 13 13 12 12 13 14 15 14 16 16 15 16 16 16 15 15 15 14 14 13 12 13 13 13 12 11 10 11 12 12 11 11 11 10 10 11 11 11 11 10 10
12 13 14 16 16 15 16 17 18 16 16 14 15 13 11 11 6 9 9 9 11 11 11 11 13 14 13 12 12 12 14 15 15 14 15 14 14 13 13 14 14 14 14 12 13 13 13 13 12 11 12 12 12 12 11 11 11 10 11 11 10 10 10
13 15 15 15 16 18 17 16 16 17 16 16 15 15 13 11 11 9 7 6 7 9 10 9 11 12 12 13 12 12 13 13 13 13 13 12 12 13 13 13 13 13 13 12 13 13 14 14 14 12 12 12 12 12 11 11 11 11 11 11 11 11 11
15 15 16 17 17 16 16 16 15 16 15 14 16 17 16 13 13 9 4 6 7 8 9 8 9 11 12 12 12 12 11 11 11 11 11 11 11 12 12 12 12 12 12 12 12 11 13 13 14 13 13 12 12 12 12 12 12 11 11 11 12 12 12
14 15 15 16 16 16 15 16 16 15 15 15 15 15 15 14 13 11 6 2 1 7 10 8 10 9 11 11 12 12 11 10 10 10 11 11 12 12 12 12 12 12 12 12 12 11 10 11 12 13 13 12 12 12 12 12 11 11 14 13 11 11 11
13 13 14 15 15 15 15 16 16 16 16 16 15 14 12 12 12 9 10 9 4 2 4 8 9 11 10 11 11 10 10 10 10 10 11 11 11 11 11 12 11 10 11 11 11 11 10 10 12 13 13 13 13 13 12 12 12 14 15 16 15 12 11
12 12 14 14 14 15 15 16 16 16 16 16 16 14 12 11 11 12 10 10 11 7 5 6 7 8 9 11 11 11 11 11 10 11 11 10 10 10 9 8 9 10 10 10 11 11 11 12 12 12 13 12 13 14 13 13 13 14 16 17 17 15 13
11 12 12 12 13 14 15 14 14 15 15 14 14 13 14 12 10 10 10 10 11 10 7 7 6 7 6 7 9 11 11 10 11 11 12 11 11 10 9 10 11 12 12 13 12 11 11 12 12 12 13 13 13 14 14 13 14 14 16 16 17 17 15
10 11 11 11 11 12 12 12 12 13 14 13 12 12 12 12 12 10 9 9 10 10 8 8 6 6 7 8 8 8 9 10 11 11 11 11 11 11 11 12 12 13 13 12 12 12 12 13 14 13 12 13 13 13 13 14 13 15 16 17 17 17 14
10 10 10 11 12 12 11 12 13 13 13 13 13 12 12 12 12 12 10 10 10 11 10 9 9 8 7 7 8 9 10 9 9 11 12 11 11 11 12 13 13 13 12 12 12 12 12 13 13 13 13 14 14 13 14 13 15 14 16 17 18 17 14
9 9 10 10 11 11 11 12 12 13 12 11 11 11 11 12 12 11 11 10 9 8 9 9 10 11 12 12 10 8 6 8 9 10 11 12 11 12 12 12 12 12 11 11 11 11 11 11 11 13 13 14 14 14 14 14 15 15 15 16 17 16 10
8 9 9 9 10 10 10 11 12 12 11 11 11 12 11 12 12 12 11 11 10 10 9 9 9 9 9 10 11 11 8 7 10 10 9 10 10 12 12 12 12 11 10 11 11 12 12 12 11 11 12 14 13 14 14 14 14 15 17 17 17 13 10
7 8 9 9 9 9 10 11 11 11 11 12 11 12 10 10 11 11 11 11 10 9 9 8 8 8 8 9 9 10 10 9 9 9 9 9 11 12 12 12 12 12 11 12 12 12 12 11 11 12 12 13 14 14 14 15 14 16 17 18 18 16 12
8 9 9 10 10 10 11 11 11 11 11 11 11 12 11 11 11 11 11 11 11 10 10 11 11 10 10 10 9 8 8 8 8 8 9 11 12 12 11 11 11 11 11 12 12 12 11 11 11 12 12 13 14 13 15 15 14 15 17 18 18 16 12
8 9 10 10 10 11 11 11 10 10 11 11 11 12 12 11 10 11 10 12 11 11 11 12 12 11 11 11 10 8 8 7 8 7 8 9 10 12 13 12 12 13 13 13 12 13 12 13 12 13 11 8 9 12 15 16 15 11 18 18 19 20 13
10 9 9 10 10 11 11 11 10 10 11 10 10 10 10 11 10 10 10 10 10 11 11 11 11 11 11 11 11 10 9 7 6 7 7 8 9 10 11 11 12 12 12 13 12 12 13 13 12 11 11 11 12 11 13 13 15 14 18 18 20 21 19
13 12 10 9 9 9 10 11 11 12 11 10 10 9 9 10 10 10 10 10 10 11 10 11 11 11 11 12 12 12 10 9 9 8 7 7 7 8 9 10 11 11 12 11 11 13 14 11 7 7 9 10 11 11 12 12 15 15 14 20 21 21 24
12 13 13 12 11 10 10 10 11 12 13 11 10 9 9 10 10 10 10 10 11 10 10 10 10 11 11 12 12 11 11 10 10 9 7 7 8 8 8 9 10 11 12 12 13 13 14 14 11 9 7 8 11 11 11 11 11 15 11 18 21 22 23
11 12 13 13 13 12 12 11 11 11 11 11 10 10 9 9 9 9 10 12 10 10 10 10 10 10 11 11 12 11 11 10 10 9 9 9 8 8 8 8 9 10 10 10 11 11 11 11 12 12 11 12 12 12 12 11 12 12 14 14 21 20 23
11 12 13 14 13 12 12 11 13 13 13 11 11 10 10 9 10 10 10 10 10 11 11 11 10 10 11 11 12 11 11 10 9 9 9 9 9 9 8 8 8 8 9 10 11 10 11 12 12 13 14 14 11 11 11 12 12 11 11 17 20 23 23
10 11 12 13 13 12 12 13 14 14 15 14 12 11 11 10 10 12 10 9 8 10 11 11 11 10 10 10 11 12 12 12 11 9 9 9 9 10 9 9 8 8 8 9 11 9 10 11 11 12 14 14 13 12 13 12 10 11 10 9 17 19 23
10 11 11 12 13 13 12 13 13 14 15 16 14 12 11 12 12 11 10 10 9 9 9 10 11 11 11 11 11 11 11 11 9 9 10 10 9 9 9 9 9 9 9 9 10 11 10 9 11 12 13 13 13 13 12 11 10 10 10 9 8 10 12
11 11 10 11 12 13 14 14 14 15 15 14 14 13 12 12 13 12 12 12 11 11 10 10 10 11 12 13 12 11 10 10 11 11 9 8 9 9 9 10 9 9 9 9 8 10 9 9 11 11 11 12 13 12 10 9 12 11 11 11 9 8 9
12 12 13 13 12 12 13 14 15 15 17 16 15 14 14 13 13 13 13 12 11 11 10 10 11 11 13 12 12 11 10 9 9 9 9 9 9 9 9 9 10 10 10 11 9 7 7 7 9 10 11 12 10 10 10 10 12 11 8 9 4 4 10
12 13 14 13 12 13 14 15 16 16 17 16 15 15 15 14 13 12 13 12 11 10 10 10 10 11 11 10 10 11 10 9 9 10 9 9 9 10 10 11 12 11 12 13 13 15 16 9 9 10 9 11 11 10 11 10 10 5 4 7 10 12 16
14 14 14 14 15 15 15 15 16 17 18 17 15 16 16 15 14 13 12 12 12 12 11 10 10 10 10 10 9 9 9 10 10 9 8 9 9 10 11 12 11 14 19 19 18 16 18 19 19 17 13 10 10 12 16 18 19 18 9 4 9 13 13
15 16 16 16 16 17 17 18 18 18 19 18 18 17 16 16 15 14 13 12 13 12 12 11 10 10 10 10 9 9 10 9 9 9 9 9 9 9 10 11 13 12 9 14 15 17 18 18 18 17 17 17 16 13 12 14 15 17 17 13 10 10 11
Wind_Direction
192 187 197 209 200 195 195 194 192 193 194 192 191 192 192 191 189 185 186 182 184 183 183 184 187 189 192 195 197 196 200 202 204 206 208 210 213 213 209 210 208 214 218 211 206 213 206 213 210 207 203 204 215 213 214 210 212 214 214 219 226 236 222
15 198 185 215 205 203 198 193 192 192 193 193 191 191 193 191 188 188 186 184 186 184 183 185 186 189 192 195 195 196 197 200 203 205 208 209 211 215 215 210 215 207 218 224 218 209 210 203 209 207 211 210 215 218 216 214 215 219 216 206 223 226 230
11 357 327 198 205 218 204 196 193 195 193 194 193 192 193 189 189 189 185 186 187 187 186 187 188 189 191 192 194 196 197 199 200 203 207 210 209 212 210 213 213 215 212 214 222 216 208 211 205 211 213 216 220 211 221 219 216 219 221 216 221 222 230
10 356 337 329 297 215 206 201 198 199 199 198 194 193 192 190 190 189 189 187 186 187 189 190 190 192 192 192 195 195 198 200 202 205 210 214 212 212 215 210 216 220 214 217 214 217 221 210 209 210 212 220 221 221 218 224 221 216 220 220 227 228 231
22 14 1 341 299 241 216 203 198 205 207 202 199 197 197 193 193 191 194 193 192 191 190 191 192 192 192 192 195 197 199 200 202 207 210 213 215 215 215 217 211 215 219 216 214 211 216 212 214 213 209 216 220 215 219 217 224 221 222 221 229 228 227
27 22 17 0 313 258 242 214 204 201 203 209 204 198 195 194 195 200 199 197 200 196 195 195 196 191 194 195 197 198 197 200 202 205 208 209 210 213 214 214 216 215 215 216 215 210 205 213 220 216 217 212 218 222 214 215 219 219 216 222 229 231 232
27 27 26 20 11 312 237 247 202 202 202 214 212 202 195 194 196 198 193 201 202 201 200 199 199 194 196 197 200 198 197 197 199 202 205 208 208 213 215 215 218 219 220 211 215 215 211 212 217 221 219 223 222 223 218 214 218 216 218 220 224 227 235
31 29 31 31 24 21 25 345 196 223 199 202 209 207 197 202 198 198 197 200 200 201 203 205 201 200 195 198 198 201 200 202 198 200 202 206 207 211 213 216 215 217 215 217 213 214 218 215 216 214 218 221 220 221 221 211 212 219 218 221 224 228 226
37 37 35 34 31 30 24 31 34 44 15 201 216 206 202 206 203 201 201 200 198 201 202 204 203 200 196 198 198 200 201 201 200 199 202 204 207 212 214 213 215 212 214 217 216 210 219 218 220 218 215 221 222 216 218 214 214 219 224 223 224 229 238
33 33 34 37 35 34 33 29 30 33 34 36 26 340 247 206 213 207 202 204 204 204 205 204 202 198 195 199 203 202 200 200 203 202 203 206 208 212 215 216 212 209 214 216 220 215 211 220 222 217 215 218 218 216 217 213 216 219 219 220 223 228 230
39 36 35 36 37 35 34 33 31 26 30 36 34 25 302 248 218 219 212 209 207 206 206 205 205 202 197 200 204 203 203 203 203 205 206 210 212 213 214 216 216 209 213 215 218 220 214 210 216 218 214 217 217 216 215 216 216 219 224 222 222 224 229
43 41 38 37 38 38 36 34 33 28 24 27 32 33 18 274 258 231 225 213 211 211 212 203 210 218 214 206 207 206 204 203 204 207 208 211 214 215 215 216 217 215 209 213 215 215 218 212 210 212 213 217 220 219 218 217 217 217 221 225 224 222 226
45 45 41 39 38 37 37 35 31 29 24 21 22 24 30 31 337 265 235 225 218 221 223 211 206 208 218 220 218 213 212 207 206 206 209 209 213 215 216 217 217 218 216 210 214 213 214 213 212 212 215 215 218 221 219 219 219 218 218 224 227 228 226
48 44 42 40 37 34 35 34 30 27 24 20 18 18 24 28 23 19 357 292 249 229 229 213 211 213 213 213 218 221 218 218 212 212 209 210 209 216 218 218 218 218 218 214 213 216 216 218 213 211 215 217 218 219 219 217 218 216 219 221 223 223 225
43 40 36 35 33 35 31 32 29 25 22 20 18 17 18 16 15 9 39 24 331 286 242 231 219 216 217 219 222 219 217 218 219 215 212 211 211 213 217 219 217 216 217 215 218 218 221 221 222 217 216 218 218 219 219 220 220 219 216 217 218 224 227
40 38 35 33 29 28 28 28 27 24 22 22 19 16 15 13 10 4 354 352 5 353 330 263 234 229 229 222 220 223 219 214 215 211 209 207 209 210 212 217 218 217 216 218 219 222 223 225 224 227 222 219 219 219 220 222 225 216 211 214 220 219 228
39 34 32 29 27 25 23 24 22 20 20 20 20 17 12 9 10 11 4 358 359 310 291 325 277 237 235 237 229 223 221 214 211 210 209 207 208 209 209 214 219 220 220 220 221 223 221 223 225 226 228 224 223 222 223 226 226 210 196 204 214 225 227
35 33 32 25 21 20 21 20 20 17 15 15 14 12 9 5 4 11 12 355 351 351 321 265 293 285 252 236 240 240 229 226 210 205 208 207 209 209 210 212 219 227 227 226 225 222 225 225 226 228 230 230 229 229 229 231 226 204 195 200 205 212 227
30 29 31 28 22 19 17 14 16 14 12 12 10 6 4 1 0 359 353 356 339 339 346 347 294 273 297 301 259 233 232 227 219 212 208 206 207 206 203 203 210 217 223 227 228 230 227 230 230 228 229 234 234 235 235 237 222 203 198 200 203 207 217
20 23 22 24 24 22 14 11 12 12 10 6 9 8 4 4 359 354 354 351 354 351 357 350 343 330 305 277 270 262 240 230 233 232 221 209 207 205 206 210 211 218 225 228 226 225 228 230 231 231 230 231 232 236 241 240 232 202 199 200 202 203 204
16 13 14 14 14 15 12 9 6 6 6 6 5 3 2 6 0 357 356 356 2 358 7 0 358 351 336 316 290 262 247 241 240 238 233 222 210 208 209 212 218 221 223 226 225 226 227 232 234 232 231 231 230 233 236 237 232 209 200 201 201 200 198
14 7 9 7 7 6 6 6 4 2 357 359 3 2 4 2 358 357 357 352 1 360 9 5 6 360 354 347 346 2 346 289 248 237 233 227 216 210 212 216 217 219 222 231 236 234 232 229 235 240 237 233 234 236 237 241 223 209 201 200 202 191 199
5 2 359 360 359 357 4 1 356 356 347 357 1 4 360 358 357 355 359 358 358 351 356 5 7 2 355 349 346 347 338 322 324 314 269 236 226 228 229 227 224 224 223 226 231 238 238 239 237 236 241 243 239 237 241 243 226 204 202 198 194 180 208
352 355 349 351 349 350 356 358 349 347 346 348 358 358 355 355 354 353 359 357 353 351 354 357 3 356 351 344 343 334 334 333 322 293 283 261 247 244 246 245 243 241 237 238 235 231 237 241 243 245 243 242 244 242 240 242 232 202 202 200 186 189 205
338 340 334 336 337 343 352 348 340 335 340 344 356 347 345 352 350 355 355 353 352 357 356 354 351 348 341 334 333 327 322 320 314 317 295 267 256 254 250 247 247 248 245 241 242 243 236 232 238 242 243 242 245 237 239 248 244 203 202 199 188 193 212
328 325 323 325 323 336 335 327 324 331 337 342 352 336 341 345 349 351 351 347 345 351 352 353 347 341 334 329 321 320 316 307 308 303 308 307 285 262 252 248 246 243 241 242 241 240 237 232 231 233 237 243 252 257 251 244 247 213 196 195 191 194 207
311 311 309 313 320 331 316 316 318 323 324 335 333 331 337 340 338 342 342 338 338 343 343 342 339 337 334 328 322 320 314 309 308 302 299 293 299 301 281 256 247 245 243 240 236 238 237 235 229 230 236 233 232 229 239 253 253 232 186 195 190 196 202
308 307 306 305 313 304 304 308 311 308 309 318 318 326 333 330 330 327 329 327 332 333 336 333 333 333 333 327 324 322 318 318 316 309 302 298 298 299 299 284 258 248 246 245 243 238 237 235 223 231 242 247 246 239 231 232 245 255 187 193 192 195 200
306 306 308 308 299 296 298 300 303 305 306 307 311 324 319 321 320 315 316 316 323 328 327 328 326 329 326 326 324 322 318 314 312 310 305 300 296 294 294 298 285 258 244 240 239 240 241 240 243 240 240 247 248 247 246 236 232 233 215 189 194 196 201
299 299 299 299 301 302 305 300 295 293 297 303 310 307 306 306 305 303 304 306 316 319 319 318 323 321 322 322 322 322 319 314 312 309 305 299 293 288 283 283 286 285 266 244 235 239 239 240 242 245 244 239 238 241 244 242 243 222 211 188 192 198 203
301 301 299 299 300 303 300 296 297 296 292 290 291 294 293 293 289 290 290 298 306 309 312 314 313 317 319 319 318 317 317 317 310 305 301 301 294 286 278 268 263 261 266 255 239 233 235 236 237 240 244 245 242 242 243 243 239 241 211 198 191 198 203
290 291 294 295 297 299 302 299 295 292 290 290 286 285 283 279 281 282 286 292 292 296 301 305 310 313 312 310 312 313 315 314 311 303 297 296 291 283 273 266 260 259 252 250 248 242 239 241 239 240 242 244 244 244 245 240 242 241 235 198 199 201 205
296 292 293 294 297 300 296 297 295 293 292 291 294 293 289 287 282 280 281 280 279 283 290 299 306 304 304 307 308 309 308 308 310 317 309 299 292 285 279 264 254 251 251 248 251 249 244 238 241 243 242 242 245 244 245 245 246 243 240 237 208 205 207
294 294 291 291 292 293 291 290 290 291 291 290 291 291 288 286 284 282 282 284 288 290 289 285 288 297 302 304 305 302 304 306 307 302 296 300 300 298 299 295 284 266 255 253 250 250 246 241 243 242 243 248 247 247 241 241 242 237 232 230 232 235 218
293 291 291 287 286 284 284 287 287 288 288 287 287 286 284 280 278 279 278 277 278 277 275 277 280 281 286 294 296 296 299 299 302 304 309 308 301 290 283 281 282 286 287 277 272 276 280 287 275 264 261 256 254 254 250 242 240 231 221 229 229 224 261
293 290 288 287 285 283 282 281 281 280 280 280 282 282 281 280 274 271 270 272 272 271 266 269 277 280 278 281 288 291 295 300 305 309 306 302 301 302 295 286 278 270 275 280 286 297 295 275 265 272 295 299 291 288 276 257 261 353 1 218 215 209 232
292 290 287 288 286 283 280 279 279 278 276 276 276 275 276 275 273 268 265 265 265 262 260 260 265 273 278 274 271 286 300 298 296 299 299 298 298 298 298 298 282 246 237 243 255 259 262 271 274 273 260 252 279 281 278 286 293 297 298 284 205 209 222
294 293 292 289 286 285 284 282 281 279 279 278 275 272 270 272 272 270 264 260 260 256 255 257 258 263 267 273 276 283 285 286 289 291 291 291 291 291 296 297 297 294 256 237 243 252 257 259 262 267 270 258 242 250 279 270 268 271 271 255 238 225 217